Meteopurmerend
purmerend
Purmerend - Baaienwijk



My webcam  My webcam


Onweer radar Meer informatie blitzortung!


Regen radar Meer informatie rain snow radar


Bezoek onze andere website:

CandyAppleRed WebdesignWebdesign Purmerend Candy Apple Red

MeteopurmerendBlog

Template documentation
and downloads



We konden geen weer-waarchuwingen ophalen. Ga rechtstreeks naar de Meteoalarm site : www.meteoalarm.eu en controleer daar .

15 daagse weersverwachting Cardiff (GB)

  • Overzicht
  • Per uur
  • 15 dagen
  • Extra
  • Vergelijk
  • Kaarten
  • Dagkaart
  • Meer »
  • Info
  • Statistieken
  • Directe link
    Temp 6h Neerslag Wind  
 04:59     21:34    Daglengte: 16:35 Vandaag
07:00
13°
 
7
13:00
19°
 
8
19:00
17°
 
5
 04:59     21:33    Daglengte: 16:34 Morgen
01:00
14°
 
5
07:00
13°
2.3 mm
5
13:00
17°
 
6
19:00
16°
 
6
 05:00     21:33    Daglengte: 16:33 Dinsdag 28 Jun
01:00
13°
 
4
07:00
14°
 
5
13:00
17°
 
7
19:00
16°
16.9 mm
6
 05:01     21:33    Daglengte: 16:32 Woensdag 29 Jun
01:00
15°
31.1 mm
5
Locatie info
Region: Wales
Latitude: 51.4813°N
Longitude: -3.1807°E
17 masl
Postcode: CF10 1
Temp/Neerslag /Baro Onweer/Dauwpunt
    Temp Baro 1h Neerslag Dauwpunt Wind UV Bewolking  
 04:59     21:34    Daglengte: 16:35 Vandaag
04:00
13°
1006.7 hPa
48%
9.9°
6
Windvlaag: 10.3 m/s
57%
05:00
13°
1007.0 hPa
24%
9.8°
7
Windvlaag: 10.6 m/s
21%
06:00
13°
1007.3 hPa
19%
10.0°
7
Windvlaag: 10.3 m/s
17%
07:00
13°
1007.6 hPa
18%
10.2°
7
Windvlaag: 11 m/s
18%
08:00
14°
1008.0 hPa
17%
9.6°
7
Windvlaag: 11.2 m/s
19%
09:00
15°
1008.3 hPa
23%
9.3°
7
Windvlaag: 10.7 m/s
18%
10:00
16°
1008.6 hPa
31%
8.9°
7
Windvlaag: 10.6 m/s
7%
11:00
17°
1008.8 hPa
31%
8.1°
7
Windvlaag: 11.1 m/s
2%
12:00
18°
1009.0 hPa
29%
8.1°
7
Windvlaag: 11.2 m/s
6%
13:00
19°
1009.1 hPa
26%
8.2°
8
Windvlaag: 11.4 m/s
24%
14:00
19°
1009.4 hPa
25%
8.1°
8
Windvlaag: 10.9 m/s
48%
15:00
18°
1009.7 hPa
26%
8.4°
7
Windvlaag: 6.4 m/s
29%
16:00
18°
1009.8 hPa
21%
8.4°
7
Windvlaag: 6.7 m/s
16%
17:00
18°
1009.9 hPa
26%
8.9°
7
Windvlaag: 6.2 m/s
17%
18:00
18°
1010.0 hPa
28%
9.4°
6
Windvlaag: 6.5 m/s
27%
19:00
17°
1010.2 hPa
29%
10.4°
5
Windvlaag: 4 m/s
34%
20:00
17°
1010.4 hPa
34%
9.8°
5
Windvlaag: 4.7 m/s
14%
21:00
16°
1010.9 hPa
35%
9.8°
5
Windvlaag: 6.1 m/s
14%
22:00
15°
1011.5 hPa
29%
9.6°
5
Windvlaag: 7.6 m/s
11%
23:00
15°
1011.8 hPa
26%
9.2°
5
Windvlaag: 8.7 m/s
12%
 04:59     21:33    Daglengte: 16:34 Morgen
00:00
14°
1011.9 hPa
22%
9.3°
5
Windvlaag: 8.3 m/s
12%
01:00
14°
1011.7 hPa
22%
9.7°
5
Windvlaag: 8.3 m/s
48%
02:00
13°
1011.7 hPa
69%
10.1°
5
Windvlaag: 8.5 m/s
61%
03:00
13°
1011.6 hPa
79%
10.2°
5
Windvlaag: 8.4 m/s
77%
04:00
13°
1011.6 hPa
82%
10.1°
4
Windvlaag: 8.2 m/s
80%
05:00
13°
1011.5 hPa
82%
10.1°
4
Windvlaag: 8.1 m/s
85%
06:00
13°
1011.6 hPa
82%
10.4°
4
Windvlaag: 8.8 m/s
83%
07:00
13°
1011.9 hPa 2.3 mm
82%
10.5°
5
Windvlaag: 8.8 m/s
32%
08:00
14°
1012.2 hPa
82%
9.7°
5
Windvlaag: 8.1 m/s
55%
09:00
14°
1012.8 hPa
82%
8.8°
5
Windvlaag: 5.7 m/s
27%
10:00
15°
1013.6 hPa
82%
8.6°
6
Windvlaag: 4.8 m/s
29%
11:00
16°
1014.2 hPa
44%
9.4°
6
Windvlaag: 2.7 m/s
1%
12:00
16°
1014.4 hPa
15%
9.9°
6
Windvlaag: 2.3 m/s
0%
13:00
17°
1015.0 hPa
16%
10.2°
6
Windvlaag: 3 m/s
3%
14:00
17°
1015.4 hPa
14%
9.8°
7
Windvlaag: 3.9 m/s
1%
15:00
17°
1015.8 hPa
14%
8.8°
7
Windvlaag: 3.8 m/s
3%
16:00
17°
1016.1 hPa
14%
8.9°
7
Windvlaag: 3.2 m/s
10%
17:00
17°
1016.3 hPa
14%
8.5°
6
Windvlaag: 3.6 m/s
21%
18:00
16°
1016.6 hPa
14%
7.8°
6
Windvlaag: 4.2 m/s
49%
19:00
16°
1017.1 hPa
14%
7.9°
6
Windvlaag: 4.3 m/s
45%
20:00
15°
1017.4 hPa
14%
8.5°
5
Windvlaag: 3.9 m/s
17%
21:00
14°
1017.7 hPa
14%
8.4°
5
Windvlaag: 3.4 m/s
14%
22:00
14°
1017.8 hPa
21%
9.7°
4
Windvlaag: 4.4 m/s
60%
23:00
13°
1017.8 hPa
21%
9.9°
4
Windvlaag: 6 m/s
57%
 05:00     21:33    Daglengte: 16:33 Dinsdag 28 Jun
00:00
13°
1017.7 hPa
21%
10.0°
3
Windvlaag: 6.1 m/s
62%
01:00
13°
1017.2 hPa
21%
10.4°
4
Windvlaag: 8.2 m/s
67%
02:00
13°
1017.0 hPa
21%
10.4°
4
Windvlaag: 8.3 m/s
57%
03:00
13°
1016.8 hPa
21%
10.6°
4
Windvlaag: 7.9 m/s
80%
04:00
13°
1016.5 hPa
22%
11.0°
5
Windvlaag: 8.6 m/s
82%
05:00
13°
1016.1 hPa
22%
10.8°
5
Windvlaag: 9.2 m/s
86%
06:00
13°
1015.8 hPa
21%
10.7°
6
Windvlaag: 10.2 m/s
83%
07:00
14°
1016.1 hPa
21%
10.7°
5
Windvlaag: 13.1 m/s
44%
08:00
15°
1016.1 hPa
35%
10.5°
6
Windvlaag: 12.7 m/s
77%
09:00
16°
1015.7 hPa
32%
10.7°
6
Windvlaag: 11.6 m/s
56%
10:00
17°
1015.3 hPa
22%
11.2°
7
Windvlaag: 10.9 m/s
69%
11:00
17°
1015.0 hPa
21%
11.7°
8
Windvlaag: 11.8 m/s
91%
12:00
17°
1014.7 hPa
26%
12.0°
7
Windvlaag: 11.7 m/s
66%
13:00
17°
1014.3 hPa
85%
11.8°
7
Windvlaag: 11.6 m/s
79%
14:00
17°
1013.9 hPa 3.7 mm
100%
11.9°
7
Windvlaag: 12.6 m/s
93%
15:00
16°
1013.7 hPa 4.1 mm
100%
12.5°
7
Windvlaag: 13.7 m/s
95%
16:00
16°
1013.6 hPa 4.4 mm
100%
12.9°
7
Windvlaag: 14.9 m/s
100%
17:00
16°
1013.2 hPa 4.7 mm
100%
12.8°
6
Windvlaag: 17.2 m/s
98% warningclass
18:00
16°
1012.8 hPa
95%
13.6°
6
Windvlaag: 16 m/s
98%
19:00
16°
1012.6 hPa
88%
13.7°
6
Windvlaag: 14.6 m/s
100%
20:00
15°
1012.6 hPa 4.2 mm
100%
13.7°
6
Windvlaag: 13.2 m/s
100%
21:00
15°
1012.5 hPa 6.2 mm
100%
13.3°
6
Windvlaag: 12.2 m/s
98%
22:00
15°
1012.7 hPa 6.4 mm
100%
12.7°
6
Windvlaag: 12.1 m/s
95%
23:00
15°
1012.4 hPa 5.6 mm
100%
12.3°
5
Windvlaag: 12 m/s
96%
 05:01     21:33    Daglengte: 16:32 Woensdag 29 Jun
00:00
15°
1012.1 hPa 4.4 mm
100%
12.7°
5
Windvlaag: 10.9 m/s
95%
01:00
15°
1011.8 hPa
100%
12.9°
5
Windvlaag: 9.9 m/s
88%
Temp/Neerslag /Baro Onweer/Dauwpunt
    Temp Baro Neerslag Dauwpunt Wind Bewolking  
 04:59     21:34    Daglengte: 16:35 Vandaag
04:00
13°
1006.7 hPa   9.9°
6
57%
07:00
13°
1007.6 hPa   10.2°
7
18%
10:00
16°
1008.6 hPa   8.9°
7
7%
13:00
19°
1009.1 hPa   8.2°
8
24%
16:00
18°
1009.8 hPa   8.4°
7
16%
19:00
17°
1010.2 hPa   10.4°
5
34%
22:00
15°
1011.5 hPa   9.6°
5
11%
 04:59     21:33    Daglengte: 16:34 Morgen
01:00
14°
1011.7 hPa   9.7°
5
48%
04:00
13°
1011.6 hPa   10.1°
4
80%
07:00
13°
1011.9 hPa 2.3 mm 10.5°
5
32%
10:00
15°
1013.6 hPa   8.6°
6
29%
13:00
17°
1015.0 hPa   10.2°
6
3%
16:00
17°
1016.1 hPa   8.9°
7
10%
19:00
16°
1017.1 hPa   7.9°
6
45%
22:00
14°
1017.8 hPa   9.7°
4
60%
 05:00     21:33    Daglengte: 16:33 Dinsdag 28 Jun
01:00
13°
1017.2 hPa   10.4°
4
67%
04:00
13°
1016.5 hPa   11.0°
5
82%
07:00
14°
1016.1 hPa   10.7°
5
44%
10:00
17°
1015.3 hPa   11.2°
7
69%
13:00
17°
1014.3 hPa   11.8°
7
79%
16:00
16°
1013.6 hPa 12.2 mm 12.9°
7
100%
19:00
16°
1012.6 hPa 4.7 mm 13.7°
6
100%
22:00
15°
1012.7 hPa 16.8 mm 12.7°
6
95%
 05:01     21:33    Daglengte: 16:32 Woensdag 29 Jun
01:00
15°
1011.8 hPa 14.3 mm 12.9°
5
88%
04:00
13°
1011.0 hPa 11.2 mm 11.9°
5
1%
07:00
14°
1011.2 hPa 11.5 mm 12.5°
4
1%
10:00
16°
1011.5 hPa 12.3 mm 12.7°
5
1%
13:00
17°
1011.0 hPa 13.4 mm 12.1°
4
1%
16:00
16°
1011.0 hPa 15.4 mm 13.2°
4
1%
19:00
13°
1011.6 hPa 17.0 mm 11.7°
4
1%
22:00
12°
1012.4 hPa 17.1 mm 10.1°
3
0%
 05:01     21:33    Daglengte: 16:32 Donderdag 30 Jun
01:00
11°
1012.5 hPa 17.1 mm 9.5°
2
1%
04:00
10°
1012.4 hPa 17.1 mm 8.8°
1
0%
07:00
12°
1012.7 hPa 17.1 mm 10.0°
0
0%
10:00
14°
1012.7 hPa 17.2 mm 9.9°
2
1%
13:00
17°
1012.3 hPa 17.2 mm 8.0°
2
1%
16:00
17°
1012.0 hPa 17.5 mm 9.3°
3
1%
19:00
17°
1011.8 hPa 18.0 mm 11.1°
3
1%
22:00
13°
1012.7 hPa 19.0 mm 10.3°
3
1%
 05:02     21:33    Daglengte: 16:31 Vrijdag 01 Jul
01:00
12°
1012.8 hPa 19.1 mm 10.2°
3
1%
04:00
12°
1012.7 hPa 19.1 mm 10.5°
3
1%
07:00
13°
1013.0 hPa 19.1 mm 10.6°
3
1%
10:00
16°
1012.7 hPa 19.2 mm 10.5°
6
1%
13:00
15°
1013.1 hPa 20.7 mm 12.5°
6
1%
16:00
17°
1013.6 hPa 21.4 mm 10.7°
9
1%
19:00
16°
1014.7 hPa 21.5 mm 11.4°
8
0%
22:00
14°
1015.2 hPa 21.7 mm 12.2°
7
1%
 05:03     21:32    Daglengte: 16:29 Zaterdag 02 Jul
01:00
14°
1015.1 hPa 21.9 mm 12.7°
7
1%
04:00
14°
1014.3 hPa 22.3 mm 13.3°
8
1%
07:00
14°
1014.4 hPa 24.0 mm 13.2°
6
1%
10:00
16°
1014.9 hPa 24.6 mm 12.2°
6
1%
13:00
18°
1015.5 hPa 24.7 mm 10.1°
7
1%
16:00
18°
1016.0 hPa 24.7 mm 9.9°
7
1%
19:00
16°
1016.5 hPa 24.7 mm 10.7°
6
1%
22:00
13°
1017.9 hPa 24.8 mm 11.4°
4
0%
 05:03     21:32    Daglengte: 16:29 Zondag 03 Jul
01:00
12°
1018.2 hPa 49.6 mm 10.8°
3
0%
07:00
13°
1019.6 hPa 49.6 mm 11.3°
3
0%
13:00
18°
1021.5 hPa 49.6 mm 8.4°
6
1%
19:00
16°
1022.8 hPa 49.6 mm 9.5°
6
0%
 05:04     21:31    Daglengte: 16:27 Maandag 04 Jul
01:00
11°
1024.5 hPa 49.6 mm 9.7°
3
0%
07:00
12°
1025.7 hPa 49.6 mm 10.4°
3
0%
13:00
20°
1026.2 hPa 49.6 mm 12.1°
4
0%
19:00
20°
1026.3 hPa 49.6 mm 13.4°
4
0%
 05:05     21:31    Daglengte: 16:26 Dinsdag 05 Jul
01:00
14°
1027.6 hPa 49.6 mm 12.9°
3
0%
07:00
15°
1027.3 hPa 49.6 mm 12.5°
2
0%
13:00
21°
1027.1 hPa 49.6 mm 12.3°
4
1%
19:00
20°
1026.6 hPa 49.6 mm 13.3°
4
1%
 05:06     21:30    Daglengte: 16:24 Woensdag 06 Jul
01:00
15°
1020.2 hPa 0.1 mm 12.5°
1
51%
07:00
15°
1019.6 hPa 0.1 mm 12.5°
1
48%
13:00
19°
1019.7 hPa 0.6 mm 13.5°
3
52%
19:00
19°
1018.9 hPa 0.4 mm 14.1°
4
43%
 05:07     21:30    Daglengte: 16:23 Donderdag 07 Jul
01:00
15°
1019.8 hPa   12.3°
2
32%
07:00
15°
1019.7 hPa 0.1 mm 12.2°
1
48%
13:00
19°
1020.1 hPa 0.4 mm 13.3°
3
56%
19:00
19°
1019.1 hPa 0.7 mm 13.7°
4
49%
 05:08     21:29    Daglengte: 16:21 Vrijdag 08 Jul
01:00
15°
1019.6 hPa 0.2 mm 12.3°
2
39%
07:00
15°
1019.4 hPa 0.2 mm 12.1°
2
39%
13:00
18°
1019.2 hPa 0.4 mm 13.1°
4
46%
19:00
18°
1018.3 hPa 0.4 mm 13.3°
5
47%
 05:09     21:28    Daglengte: 16:19 Zaterdag 09 Jul
01:00
15°
1018.6 hPa 0.2 mm 12.4°
3
52%
07:00
15°
1018.1 hPa 0.3 mm 12.0°
2
51%
13:00
18°
1017.9 hPa 0.5 mm 12.6°
5
51%
19:00
18°
1017.1 hPa 0.7 mm 13.4°
5
46%
 05:10     21:28    Daglengte: 16:18 Zondag 10 Jul
01:00
15°
1017.7 hPa 0.3 mm 12.0°
3
42%
07:00
14°
1017.8 hPa 0.3 mm 11.5°
2
53%
13:00
18°
1018.4 hPa 0.4 mm 11.9°
5
47%
19:00
18°
1018.1 hPa 0.3 mm 12.7°
5
50%
 05:11     21:27    Daglengte: 16:16 Maandag 11 Jul
01:00
15°
1018.9 hPa 0.1 mm 11.8°
3
45%
  CAPE Lifted Index Hail Supercell Tornado SRH 3km CL BTM PRES CL TOP PRES Swiss DWD icon SMHI TS
 04:59     21:34    Daglengte: 16:35 Vandaag
04:00 228 J/kg 1.5 K 0 % 0 % 0 % 0 m²/s² 0 0 3.69 3
05:00 205 J/kg 2.2 K 0 % 0 % 0 % 0 m²/s² 0 0 3.64 3
06:00 194 J/kg 2.8 K 0 % 0 % 0 % 0 m²/s² 0 0 4.96 2
07:00 182 J/kg 3.3 K 0 % 0 % 0 % 0 m²/s² 0 0 4.44 2
08:00 201 J/kg 3.2 K 0 % 0 % 0 % 0 m²/s² 0 0 6.95 2
09:00 177 J/kg 3.5 K 0 % 0 % 0 % 0 m²/s² 0 0 9.38 1
10:00 112 J/kg 4.2 K 0 % 0 % 0 % 0 m²/s² 0 0 11.85 1
11:00 38 J/kg 5.3 K 0 % 0 % 0 % 0 m²/s² 0 0 13.61 0
12:00 24 J/kg 5.2 K 0 % 0 % 0 % 0 m²/s² 0 0 14.26 2
13:00 18 J/kg 4.7 K 0 % 0 % 0 % 0 m²/s² 0 0 13.79 1
14:00 71 J/kg 3.0 K 0 % 0 % 0 % 0 m²/s² 0 0 10.41 2
15:00 79 J/kg 2.7 K 0 % 0 % 0 % 0 m²/s² 0 0 9.36 2
16:00 126 J/kg 2.2 K 0 % 0 % 0 % 0 m²/s² 0 0 8.26 2
17:00 162 J/kg 2.1 K 0 % 0 % 0 % 0 m²/s² 0 0 7.83 1
18:00 190 J/kg 1.8 K 0 % 0 % 0 % 0 m²/s² 0 0 6.21 2
19:00 163 J/kg 1.8 K 0 % 0 % 0 % 0 m²/s² 0 0 3.3 2
20:00 143 J/kg 2.3 K 0 % 0 % 0 % 0 m²/s² 0 0 3.2 1
21:00 182 J/kg 1.8 K 0 % 0 % 0 % 0 m²/s² 0 0 2.22 1
22:00 186 J/kg 1.6 K 0 % 0 % 0 % 0 m²/s² 0 0 1.96 2
23:00 165 J/kg 1.5 K 0 % 0 % 0 % 0 m²/s² 0 0 1.86 2
 04:59     21:33    Daglengte: 16:34 Morgen
00:00 141 J/kg 1.6 K 0 % 0 % 0 % 0 m²/s² 0 0 1.9 2
01:00 169 J/kg 1.4 K 0 % 0 % 0 % 0 m²/s² 0 0 1.64 3
02:00 167 J/kg 1.4 K 0 % 0 % 0 % 0 m²/s² 0 0 1.7 3
03:00 139 J/kg 1.7 K 0 % 0 % 0 % 0 m²/s² 0 0 2 80
04:00 115 J/kg 1.9 K 0 % 0 % 0 % 0 m²/s² 0 0 2.26 61
05:00 122 J/kg 1.7 K 0 % 0 % 0 % 0 m²/s² 0 0 2.24 61
06:00 129 J/kg 1.8 K 0 % 0 % 0 % 0 m²/s² 0 0 2.22 61
07:00 118 J/kg 2.1 K 0 % 0 % 0 % 0 m²/s² 0 0 2.46 61
08:00 79 J/kg 3.1 K 0 % 0 % 0 % 0 m²/s² 0 0 5.44 3
09:00 20 J/kg 4.4 K 0 % 0 % 0 % 0 m²/s² 0 0 7.16 2
10:00 13 J/kg 4.5 K 0 % 0 % 0 % 0 m²/s² 0 0 8.01 3
11:00 15 J/kg 5.3 K 0 % 0 % 0 % 0 m²/s² 0 0 10.19 2
12:00 11 J/kg 6.5 K 0 % 0 % 0 % 0 m²/s² 0 0 11.27 1
13:00 12 J/kg 7.8 K 0 % 0 % 0 % 0 m²/s² 0 0 12.21 2
14:00 28 J/kg 8.6 K 0 % 0 % 0 % 0 m²/s² 0 0 14.93 1
15:00 21 J/kg 9.9 K 0 % 0 % 0 % 0 m²/s² 0 0 17.76 0
16:00 25 J/kg 10.7 K 0 % 0 % 0 % 0 m²/s² 0 0 19.28 0
17:00 37 J/kg 10.8 K 0 % 0 % 0 % 0 m²/s² 0 0 19.83 2
18:00 48 J/kg 10.1 K 0 % 0 % 0 % 0 m²/s² 0 0 18.83 3
19:00 35 J/kg 10.0 K 0 % 0 % 0 % 0 m²/s² 0 0 14.86 3
20:00 30 J/kg 9.8 K 0 % 0 % 0 % 0 m²/s² 0 0 12.53 2
21:00 27 J/kg 9.4 K 0 % 0 % 0 % 0 m²/s² 0 0 11.02 1
22:00 34 J/kg 9.1 K 0 % 0 % 0 % 0 m²/s² 0 0 10.12 1
23:00 17 J/kg 9.4 K 0 % 0 % 0 % 0 m²/s² 0 0 10.42 1
 05:00     21:33    Daglengte: 16:33 Dinsdag 28 Jun
00:00 8 J/kg 9.4 K 0 % 0 % 0 % 0 m²/s² 0 0 10.48 1
01:00 6 J/kg 9.7 K 0 % 0 % 0 % 0 m²/s² 0 0 10.78 3
02:00 1 J/kg 10.0 K 0 % 0 % 0 % 0 m²/s² 0 0 10.93 1
03:00 1 J/kg 9.5 K 0 % 0 % 0 % 0 m²/s² 0 0 10.58 3
04:00 1 J/kg 9.9 K 0 % 0 % 0 % 0 m²/s² 0 0 11.46 3
05:00 1 J/kg 9.7 K 0 % 0 % 0 % 0 m²/s² 0 0 11.68 3
06:00 2 J/kg 9.5 K 0 % 0 % 0 % 0 m²/s² 0 0 10.94 3
07:00 7 J/kg 9.1 K 0 % 0 % 0 % 0 m²/s² 0 0 10.39 3
08:00 8 J/kg 9.1 K 0 % 0 % 0 % 0 m²/s² 0 0 10.39 3
09:00 9 J/kg 8.7 K 0 % 0 % 0 % 0 m²/s² 0 0 9.54 3
10:00 6 J/kg 7.8 K 0 % 0 % 0 % 0 m²/s² 0 0 8.1 3
11:00 20 J/kg 7.2 K 0 % 0 % 0 % 0 m²/s² 0 0 7.44 3
12:00 30 J/kg 6.3 K 0 % 0 % 0 % 0 m²/s² 0 0 6.87 3
13:00 29 J/kg 5.3 K 0 % 0 % 0 % 0 m²/s² 0 0 5.39 3
14:00 23 J/kg 4.8 K 0 % 0 % 0 % 0 m²/s² 0 0 4.83 61
15:00 14 J/kg 4.7 K 0 % 0 % 0 % 0 m²/s² 0 0 4.79 61
16:00 11 J/kg 3.6 K 0 % 0 % 0 % 0 m²/s² 0 0 3.6 61
17:00 2 J/kg 3.2 K 0 % 0 % 0 % 0 m²/s² 0 0 3.77 61
18:00 1 J/kg 5.2 K 0 % 0 % 0 % 0 m²/s² 0 0 5.8 61
19:00 9 J/kg 5.5 K 0 % 0 % 0 % 0 m²/s² 0 0 9.49 3
20:00 36 J/kg 4.9 K 0 % 0 % 0 % 0 m²/s² 0 0 9.67 61
21:00 82 J/kg 4.8 K 0 % 0 % 0 % 0 m²/s² 0 0 9.84 63
22:00 73 J/kg 5.1 K 0 % 0 % 0 % 0 m²/s² 0 0 9.66 63
23:00 33 J/kg 6.0 K 0 % 0 % 0 % 0 m²/s² 0 0 10.44 61
 05:01     21:33    Daglengte: 16:32 Woensdag 29 Jun
00:00 57 J/kg 6.2 K 0 % 0 % 0 % 0 m²/s² 0 0 10.01 61
01:00 69 J/kg 6.7 K 0 % 0 % 0 % 0 m²/s² 0 0 10.42 3
Temp Baro Wind Neerslag
  EWN Forecast EWN WRFDA DWD ICON FMI HIRLAM MET Norway GFS
 04:59     21:34    Daglengte: 16:35 Vandaag
04:00 12.6° 1006.7 hPa 6.3 m/s 0.0 mm 12.9° 1005.1 hPa 7.0 m/s 3.7 mm 12.5° 1007.1 hPa 4.5 m/s -1.9 mm 13.4° 1006.3 hPa 7.2 m/s 0.0 mm 11.5° 1006.6 hPa 6.8 m/s
07:00 13.3° 1007.6 hPa 6.7 m/s 0.0 mm 13.0° 1005.9 hPa 7.1 m/s 11.5 mm 13.3° 1008.3 hPa 5.0 m/s 0.0 mm 14.1° 1006.8 hPa 7.5 m/s 0.0 mm 12.6° 1007.7 hPa 7.6 m/s
10:00 16.4° 1008.6 hPa 6.7 m/s 0.0 mm 15.9° 1007.0 hPa 7.8 m/s 12.4 mm 16.6° 1009.2 hPa 6.5 m/s 0.0 mm 17.0° 1008.0 hPa 7.5 m/s 0.0 mm 16.0° 1008.7 hPa 8.7 m/s
13:00 18.9° 1009.1 hPa 7.6 m/s 0.0 mm 18.1° 1007.0 hPa 9.7 m/s 12.5 mm 19.0° 1009.3 hPa 7.3 m/s 0.0 mm 18.7° 1009.1 hPa 8.7 m/s 0.0 mm 17.9° 1009.1 hPa 8.8 m/s
16:00 18.2° 1009.8 hPa 7.0 m/s 0.0 mm 17.3° 1008.0 hPa 7.8 m/s 12.5 mm 19.3° 1009.6 hPa 7.0 m/s 0.0 mm 18.4° 1010.1 hPa 8.1 m/s 0.0 mm 17.6° 1009.8 hPa 8.8 m/s
19:00 17.3° 1010.2 hPa 5.4 m/s 0.0 mm 14.7° 1009.0 hPa 5.8 m/s 13.3 mm 17.8° 1009.7 hPa 6.3 m/s 0.0 mm 17.6° 1010.8 hPa 5.3 m/s 0.0 mm 15.4° 1010.5 hPa 6.7 m/s
22:00 15.4° 1011.5 hPa 4.5 m/s 0.0 mm 14.3° 1010.1 hPa 5.2 m/s 17.8 mm 14.8° 1011.0 hPa 4.1 m/s 0.0 mm 16.7° 1012.6 hPa 4.4 m/s 0.0 mm 12.3° 1012.0 hPa 4.7 m/s
 04:59     21:33    Daglengte: 16:34 Morgen
01:00 13.7° 1011.7 hPa 5.3 m/s 0.0 mm 13.6° 1010.1 hPa 5.7 m/s 20.2 mm 13.4° 1010.8 hPa 3.9 m/s 0.0 mm 14.6° 1013.3 hPa 5.5 m/s 0.0 mm 11.4° 1012.3 hPa 4.7 m/s
04:00 13.1° 1011.6 hPa 4.4 m/s 0.0 mm 13.1° 1010.6 hPa 4.6 m/s 21.9 mm 12.8° 1010.9 hPa 3.6 m/s 1.6 mm 13.8° 1013.1 hPa 4.4 m/s 0.0 mm 11.9° 1012.8 hPa 6.1 m/s
07:00 13.2° 1011.9 hPa 4.7 m/s 2.3 mm 12.5° 1011.8 hPa 4.0 m/s 24.2 mm 13.1° 1011.3 hPa 4.5 m/s 2.7 mm 14.0° 1013.4 hPa 4.5 m/s 0.0 mm 11.9° 1013.7 hPa 4.4 m/s
10:00 14.7° 1013.6 hPa 5.6 m/s 0.0 mm 14.9° 1013.5 hPa 5.3 m/s 28.8 mm 14.4° 1013.6 hPa 5.7 m/s 0.2 mm 16.2° 1014.1 hPa 5.5 m/s 0.0 mm 14.2° 1015.0 hPa 7.2 m/s
13:00 16.5° 1015.0 hPa 6.3 m/s 0.0 mm 16.2° 1014.5 hPa 6.4 m/s 28.8 mm 16.5° 1015.1 hPa 6.5 m/s 0.0 mm 17.5° 1015.1 hPa 5.2 m/s 0.0 mm 16.0° 1016.1 hPa 6.9 m/s
16:00 17.2° 1016.1 hPa 6.7 m/s 0.0 mm 16.1° 1015.8 hPa 7.2 m/s 28.8 mm 16.8° 1016.3 hPa 6.3 m/s 0.0 mm 18.0° 1015.8 hPa 6.6 m/s 0.0 mm 15.8° 1017.4 hPa 7.5 m/s
19:00 15.7° 1017.1 hPa 5.6 m/s 0.0 mm 15.3° 1016.5 hPa 6.8 m/s 28.8 mm 15.6° 1017.3 hPa 5.1 m/s 0.0 mm 16.3° 1017.1 hPa 5.4 m/s 0.0 mm 14.8° 1018.0 hPa 6.1 m/s
22:00 13.6° 1017.8 hPa 3.8 m/s 0.0 mm 13.5° 1017.6 hPa 4.4 m/s 28.8 mm 13.5° 1018.0 hPa 1.8 m/s 0.0 mm 12.3° 1019.0 hPa 4.3 m/s
 05:00     21:33    Daglengte: 16:33 Dinsdag 28 Jun
01:00 13.0° 1017.2 hPa 4.4 m/s 0.0 mm 12.7° 1017.0 hPa 4.8 m/s 28.8 mm 12.7° 1017.2 hPa 2.1 m/s 0.0 mm 11.6° 1018.2 hPa 4.6 m/s
04:00 12.9° 1016.5 hPa 4.7 m/s 0.0 mm 12.4° 1016.5 hPa 5.1 m/s 28.8 mm 12.8° 1016.9 hPa 3.0 m/s 0.0 mm 11.3° 1017.3 hPa 5.0 m/s
07:00 13.8° 1016.1 hPa 4.9 m/s 0.0 mm 14.1° 1015.8 hPa 7.5 m/s 28.8 mm 13.8° 1016.2 hPa 4.2 m/s 0.0 mm 12.9° 1016.4 hPa 6.6 m/s
10:00 16.6° 1015.3 hPa 6.8 m/s 0.0 mm 16.4° 1014.5 hPa 8.3 m/s 28.8 mm 16.7° 1015.6 hPa 6.4 m/s 0.0 mm 16.4° 1014.7 hPa 8.6 m/s
13:00 17.2° 1014.3 hPa 7.3 m/s 0.0 mm 17.4° 1013.5 hPa 8.8 m/s 29.3 mm 17.2° 1014.5 hPa 7.0 m/s 0.1 mm 15.7° 1013.4 hPa 9.3 m/s
16:00 16.1° 1013.6 hPa 6.8 m/s 12.2 mm 15.9° 1012.6 hPa 9.1 m/s 33.1 mm 16.1° 1013.8 hPa 6.2 m/s 1.8 mm 14.6° 1012.2 hPa 10.7 m/s
19:00 15.7° 1012.6 hPa 5.9 m/s 4.7 mm 15.5° 1011.5 hPa 9.2 m/s 36.9 mm 15.8° 1012.9 hPa 5.1 m/s 1.0 mm 14.3° 1011.5 hPa 7.6 m/s
22:00 14.7° 1012.7 hPa 5.7 m/s 16.8 mm 15.6° 1012.0 hPa 7.6 m/s 37.3 mm 14.5° 1012.9 hPa 5.2 m/s 6.6 mm 14.3° 1011.6 hPa 7.4 m/s
 05:01     21:33    Daglengte: 16:32 Woensdag 29 Jun
01:00 15.0° 1011.8 hPa 4.8 m/s 14.3 mm 14.8° 1011.5 hPa 5.8 m/s 37.5 mm 15.1° 1011.9 hPa 4.5 m/s 2.7 mm 12.6° 1011.6 hPa 5.6 m/s
04:00 12.8° 1011.0 hPa 4.9 m/s 11.2 mm 12.8° 1011.0 hPa 4.9 m/s 11.2 mm
07:00 13.8° 1011.2 hPa 4.4 m/s 11.5 mm 13.8° 1011.2 hPa 4.4 m/s 11.5 mm
10:00 15.6° 1011.5 hPa 4.6 m/s 12.3 mm 15.6° 1011.5 hPa 4.6 m/s 12.3 mm
13:00 17.3° 1011.0 hPa 4.0 m/s 13.4 mm 17.3° 1011.0 hPa 4.0 m/s 13.4 mm
16:00 15.6° 1011.0 hPa 4.2 m/s 15.4 mm 15.6° 1011.0 hPa 4.2 m/s 15.4 mm
19:00 12.5° 1011.6 hPa 4.4 m/s 17.0 mm 12.5° 1011.6 hPa 4.4 m/s 17.0 mm
22:00 11.5° 1012.4 hPa 2.7 m/s 17.1 mm 11.5° 1012.4 hPa 2.7 m/s 17.1 mm
 05:01     21:33    Daglengte: 16:32 Donderdag 30 Jun
01:00 10.9° 1012.5 hPa 2.2 m/s 17.1 mm 10.9° 1012.5 hPa 2.2 m/s 17.1 mm
04:00 10.1° 1012.4 hPa 1.1 m/s 17.1 mm 10.1° 1012.4 hPa 1.1 m/s 17.1 mm
07:00 11.8° 1012.7 hPa 0.4 m/s 17.1 mm 11.8° 1012.7 hPa 0.4 m/s 17.1 mm
10:00 14.5° 1012.7 hPa 1.8 m/s 17.2 mm 14.5° 1012.7 hPa 1.8 m/s 17.2 mm
13:00 16.8° 1012.3 hPa 2.1 m/s 17.2 mm 16.8° 1012.3 hPa 2.1 m/s 17.2 mm
16:00 17.3° 1012.0 hPa 2.7 m/s 17.5 mm 17.3° 1012.0 hPa 2.7 m/s 17.5 mm
19:00 16.7° 1011.8 hPa 2.7 m/s 18.0 mm 16.7° 1011.8 hPa 2.7 m/s 18.0 mm
22:00 12.9° 1012.7 hPa 3.0 m/s 19.0 mm 12.9° 1012.7 hPa 3.0 m/s 19.0 mm
 05:02     21:33    Daglengte: 16:31 Vrijdag 01 Jul
01:00 12.3° 1012.8 hPa 3.4 m/s 19.1 mm 12.3° 1012.8 hPa 3.4 m/s 19.1 mm
04:00 12.0° 1012.7 hPa 3.2 m/s 19.1 mm 12.0° 1012.7 hPa 3.2 m/s 19.1 mm
07:00 12.7° 1013.0 hPa 3.2 m/s 19.1 mm 12.7° 1013.0 hPa 3.2 m/s 19.1 mm
10:00 16.2° 1012.7 hPa 5.7 m/s 19.2 mm 16.2° 1012.7 hPa 5.7 m/s 19.2 mm
13:00 15.2° 1013.1 hPa 6.0 m/s 20.7 mm 15.2° 1013.1 hPa 6.0 m/s 20.7 mm
16:00 16.8° 1013.6 hPa 8.7 m/s 21.4 mm 16.8° 1013.6 hPa 8.7 m/s 21.4 mm
19:00 15.6° 1014.7 hPa 8.1 m/s 21.5 mm 15.6° 1014.7 hPa 8.1 m/s 21.5 mm
22:00 14.0° 1015.2 hPa 6.7 m/s 21.7 mm 14.0° 1015.2 hPa 6.7 m/s 21.7 mm
 05:03     21:32    Daglengte: 16:29 Zaterdag 02 Jul
01:00 14.3° 1015.1 hPa 7.5 m/s 21.9 mm 14.3° 1015.1 hPa 7.5 m/s 21.9 mm
04:00 14.4° 1014.3 hPa 7.6 m/s 22.3 mm 14.4° 1014.3 hPa 7.6 m/s 22.3 mm
07:00 14.4° 1014.4 hPa 6.2 m/s 24.0 mm 14.4° 1014.4 hPa 6.2 m/s 24.0 mm
10:00 16.2° 1014.9 hPa 6.5 m/s 24.6 mm 16.2° 1014.9 hPa 6.5 m/s 24.6 mm
13:00 17.9° 1015.5 hPa 6.9 m/s 24.7 mm 17.9° 1015.5 hPa 6.9 m/s 24.7 mm
16:00 17.7° 1016.0 hPa 7.3 m/s 24.7 mm 17.7° 1016.0 hPa 7.3 m/s 24.7 mm
19:00 16.1° 1016.5 hPa 6.2 m/s 24.7 mm 16.1° 1016.5 hPa 6.2 m/s 24.7 mm
22:00 12.7° 1017.9 hPa 3.9 m/s 24.8 mm 12.7° 1017.9 hPa 3.9 m/s 24.8 mm
 05:03     21:32    Daglengte: 16:29 Zondag 03 Jul
01:00 11.8° 1018.2 hPa 3.4 m/s 24.8 mm 11.8° 1018.2 hPa 3.4 m/s 24.8 mm
07:00 13.0° 1019.6 hPa 3.1 m/s 24.8 mm 13.0° 1019.6 hPa 3.1 m/s 24.8 mm
13:00 17.8° 1021.5 hPa 5.8 m/s 24.8 mm 17.8° 1021.5 hPa 5.8 m/s 24.8 mm
19:00 16.3° 1022.8 hPa 6.4 m/s 24.8 mm 16.3° 1022.8 hPa 6.4 m/s 24.8 mm
 05:04     21:31    Daglengte: 16:27 Maandag 04 Jul
01:00 11.3° 1024.5 hPa 3.0 m/s 24.8 mm 11.3° 1024.5 hPa 3.0 m/s 24.8 mm
07:00 12.5° 1025.7 hPa 2.8 m/s 24.8 mm 12.5° 1025.7 hPa 2.8 m/s 24.8 mm
13:00 19.8° 1026.2 hPa 4.0 m/s 24.8 mm 19.8° 1026.2 hPa 4.0 m/s 24.8 mm
19:00 19.6° 1026.3 hPa 4.3 m/s 24.8 mm 19.6° 1026.3 hPa 4.3 m/s 24.8 mm
 05:05     21:31    Daglengte: 16:26 Dinsdag 05 Jul
01:00 14.2° 1027.6 hPa 3.2 m/s 24.8 mm 14.2° 1027.6 hPa 3.2 m/s 24.8 mm
07:00 15.5° 1027.3 hPa 1.8 m/s 24.8 mm 15.5° 1027.3 hPa 1.8 m/s 24.8 mm
13:00 21.0° 1027.1 hPa 3.6 m/s 24.8 mm 21.0° 1027.1 hPa 3.6 m/s 24.8 mm
19:00 20.0° 1026.6 hPa 4.3 m/s 24.8 mm 20.0° 1026.6 hPa 4.3 m/s 24.8 mm
 05:06     21:30    Daglengte: 16:24 Woensdag 06 Jul
01:00 15.4° 1020.2 hPa 1.5 m/s 0.1 mm
07:00 15.0° 1019.6 hPa 1.2 m/s 0.1 mm
13:00 18.8° 1019.7 hPa 3.2 m/s 0.6 mm
19:00 18.9° 1018.9 hPa 4.4 m/s 0.4 mm
 05:07     21:30    Daglengte: 16:23 Donderdag 07 Jul
01:00 15.2° 1019.8 hPa 2.1 m/s 0.0 mm
07:00 14.9° 1019.7 hPa 1.3 m/s 0.1 mm
13:00 18.6° 1020.1 hPa 3.2 m/s 0.4 mm
19:00 18.5° 1019.1 hPa 3.6 m/s 0.7 mm
 05:08     21:29    Daglengte: 16:21 Vrijdag 08 Jul
01:00 15.0° 1019.6 hPa 2.3 m/s 0.2 mm
07:00 14.8° 1019.4 hPa 2.0 m/s 0.2 mm
13:00 18.4° 1019.2 hPa 4.2 m/s 0.4 mm
19:00 18.1° 1018.3 hPa 4.8 m/s 0.4 mm
 05:09     21:28    Daglengte: 16:19 Zaterdag 09 Jul
01:00 15.1° 1018.6 hPa 2.6 m/s 0.2 mm
07:00 14.7° 1018.1 hPa 1.9 m/s 0.3 mm
13:00 18.1° 1017.9 hPa 4.7 m/s 0.5 mm
19:00 18.0° 1017.1 hPa 4.9 m/s 0.7 mm
 05:10     21:28    Daglengte: 16:18 Zondag 10 Jul
01:00 14.7° 1017.7 hPa 3.2 m/s 0.3 mm
07:00 14.4° 1017.8 hPa 2.2 m/s 0.3 mm
13:00 18.1° 1018.4 hPa 4.8 m/s 0.4 mm
19:00 17.7° 1018.1 hPa 5.2 m/s 0.3 mm
 05:11     21:27    Daglengte: 16:16 Maandag 11 Jul
01:00 14.6° 1018.9 hPa 3.3 m/s 0.1 mm
FMI Hirlam - 7.5 km EWN WRFDA - 12 km DWD ICON - 7 km GFS - 25 km Basiskaart






























































Updatetijd (Europe/Amsterdam) Resolutie Lengte Stap
FMI Hirlam 01:45, 07:45, 13:45, 19:45 7.5 km 49h 1h
EWN WRFDA 04:15, 10:15, 16:15, 22:15 12 km 73h 1h
DWD ICON 23:45, 05:45, 11:45, 17:45 7 km 75h 1h
GFS 02:15, 08:15, 14:15, 20:15 25 km 237h 3h
30+ mm
25-30 mm
20-25 mm
15-20 mm
10-15 mm
6-10 mm
4-6 mm
2-4 mm
1-2 mm
0.5-1 mm
0.2-0.5 mm
0.1-0.2 mm
30+ mm
25-30 mm
20-25 mm
15-20 mm
10-15 mm
6-10 mm
4-6 mm
2-4 mm
1-2 mm
0.5-1 mm
0.2-0.5 mm
0.1-0.2 mm
Sneeuwval
Natte sneeuw
Hagel
Vorst
30+ mm
25-30 mm
20-25 mm
15-20 mm
10-15 mm
6-10 mm
4-6 mm
2-4 mm
1-2 mm
0.5-1 mm
0.2-0.5 mm
0.1-0.2 mm
Sneeuwval
Natte sneeuw
Hagel
Vorst
Onweer
50 mm
40 mm
30 mm
26 mm
22 mm
18 mm
14 mm
10 mm
9 mm
8 mm
7 mm
6 mm
5 mm
4.5 mm
4 mm
3.5 mm
3 mm
2.5 mm
2 mm
1.5 mm
1 mm
0.8 mm
0.6 mm
0.4 mm
0.2 mm
0.05 mm
35°
30°
25°
20°
15°
10°
-5°
-10°
-15°
-20°
-25°
-30°
-35°
33> m/s
29 m/s
25 m/s
21 m/s
17 m/s
14 m/s
11 m/s
8 m/s
5 m/s
3 m/s
0 m/s
2600 J/kg
2400 J/kg
2200 J/kg
2000 J/kg
1800 J/kg
1600 J/kg
1400 J/kg
1200 J/kg
1000 J/kg
800 J/kg
600 J/kg
400 J/kg
200 J/kg
70 dBZ
65 dBZ
60 dBZ
55 dBZ
50 dBZ
45 dBZ
40 dBZ
35 dBZ
30 dBZ
25 dBZ
20 dBZ
15 dBZ
10 dBZ
5 dBZ
-1 K
-2 K
-3 K
-4 K
-5 K
-6 K
-7 K
-8 K
-9 K
950 m²/s²
900 m²/s²
850 m²/s²
800 m²/s²
750 m²/s²
700 m²/s²
650 m²/s²
600 m²/s²
550 m²/s²
500 m²/s²
450 m²/s²
400 m²/s²
350 m²/s²
300 m²/s²
250 m²/s²
200 m²/s²
150 m²/s²
100 m²/s²
46 m/s
44 m/s
42 m/s
40 m/s
38 m/s
36 m/s
34 m/s
32 m/s
30 m/s
28 m/s
26 m/s
24 m/s
22 m/s
20 m/s
16 m/s
12 m/s
8 m/s
4 m/s
30 m/s
28 m/s
26 m/s
24 m/s
22 m/s
20 m/s
18 m/s
16 m/s
14 m/s
12 m/s
10 m/s
8 m/s
6 m/s
4 m/s
2 m/s
3.0
2.8
2.6
2.4
2.2
2.0
1.8
1.6
1.4
1.2
1.0
0.8
0.6
0.4
0.2
15
14
13
12
11
10
9
8
7
6
5
4
3
2
1
90%
80%
70%
60%
50%
40%
30%
20%
10%
42
40
38
36
34
32
30
28
26
24
22
20
18
16
14
12
90+ cm
80-90 cm
70-80 cm
60-70 cm
50-60 cm
40-50 cm
30-40 cm
20-30 cm
10-20 cm
1-10 cm
Sneeuwval
Natte sneeuw
Regen
>120 mm
115 mm
110 mm
105 mm
100 mm
95 mm
90 mm
85 mm
80 mm
75 mm
70 mm
65 mm
60 mm
55 mm
50 mm
45 mm
45 mm
40 mm
35 mm
30 mm
25 mm
20 mm
15 mm
10 mm
5 mm
0.1 mm
960 hPa
880 hPa
800 hPa
720 hPa
640 hPa
560 hPa
584 gpdm
568 gpdm
552 gpdm
536 gpdm
520 gpdm
504 gpdm
488 gpdm
Extreem zwaar Noodweer Kans op onweer
15% 15% 5% 50% 15%

Dag




Kaart